{"data":{"norad_id":39122,"intl_designator":"2013-012A","name":"EUTELSAT 117 WEST A","alt_names":[],"object_type":"PAYLOAD","status":"ACTIVE","operator":null,"country":"EUTE","launch_date":"2013-03-26","launch_site_code":"TYMSC","launch_vehicle":null,"mission":null,"orbit_class":"UNKNOWN","rcs_meters":423.226,"size_class":null,"mass_kg":null,"dimensions":null,"purposes":["comms"],"wikipedia_slug":null,"has_3d_model":false,"image_url":null,"decayed_at":null,"tle_current":{"epoch":"2026-05-25T03:42:38.615040Z","epoch_age_seconds":58345,"freshness":"FRESH","line1":"1 39122U 13012A   26145.15461360 -.00000015  00000+0  00000+0 0  9993","line2":"2 39122   0.0151 351.0802 0002669  69.9235 120.5919  1.00271918 48202","mean_motion":1.00271918,"eccentricity":0.0002669,"inclination_deg":0.0151,"raan_deg":351.0802,"arg_perigee_deg":69.9235,"mean_anomaly_deg":120.5919,"bstar":0,"rev_number":4820,"period_min":1436.0949992001,"perigee_km":35775.303919495,"apogee_km":35797.811433513,"semimajor_km":42164.694676504,"source":"CELESTRAK","updated_at":"2026-05-25T13:38:13.941752Z"}}}